COSMOS 689

Satellite information

Favourite Embed

Satellite Type and Status

PAYLOADIN ORBIT

Key statistics

Satellite COSMOS 689 at a glance.

Uptime

18526

Days in orbit

Revolutions

≈ 13.7

Per day

Orbit

LEO

Low Earth Orbit

Inclination

82.9

Latest

Satellite identification and parameters

Extended collection of information and parameters for COSMOS 689.

Object identification

Identified? True

Debris? False

Object name: COSMOS 689

International designator: 1974-079A

Object number (NORAD): 7476

Object ID (CCSDS): 7476

Country: COMMONWEALTH OF INDEPENDENT STATES (CIS)

Current information (Y/N): Y

RCS size: LARGE

Orbital parameters

Period: 104.931 minutes

Inclination: 82.9415 deg

SMA: 7369.339 km

Apoapsis: 1013.463 km

Periapsis: 968.944 km

RAAN: 70.7149 deg

Eccentricy: 0.0030206

Argument of periapsis: 1.8181 deg

Mean anomaly: 9.4433 deg

Mean motion: 13.72334563 rev/day

Mean motion (dot): 0.00000047 rev/day2

B* drag term: 0.000034542 1/REarth

Two-line elements (TLE)

Creation date: July 7, 2025, 10:46 p.m.

Reference frame: TEME

Reference center: EARTH

Epoch: July 7, 2025, 9:51 p.m. UTC

TLE line 0: 0 COSMOS 689

TLE line 1: 1 7476U 74079A 25188.91092552 .00000047 00000-0 34542-4 0 9991

TLE line 2: 2 7476 82.9415 70.7149 0030206 1.8181 9.4433 13.72334563539426

Live tracking on map

Real-time ground track for satellite COSMOS 689.

In-orbit conjunctions

There are no conjunctions computed for COSMOS 689, at the moment. Check back to stay up to date, as we update our databases every day.

Go to all conjunctions

Associated space launch

High resolution optical reconnaissance satellite of the Vostok-based Zenit family.

COSMOS 689 was lifted into orbit during the mission ‘Voskhod | Zenit-4MK 31’, on board a Voskhod space rocket.

The launch took place on Oct. 18, 1974, 3 p.m. from 41/1.

For more information about the launch, click the button.

Launch to space Voskhod | Zenit-4MK 31
Voskhod | Zenit-4MK 31

Agency: N/A

Status: Launch Successful

Launch date: Oct. 18, 1974, 3 p.m. UTC

Rocket: Voskhod

Launch pad: 41/1

Location: Plesetsk Cosmodrome, Russian Federation

...

Latest news about this satellite

There are no fresh news available about this satellite. Check back as we update our databases every day.


Newsletter sign-up

Weekly statistics, charts and insights to help you stay on top of the space industry.